Location: Dennis Manor
(64.8292°N, 147.5397°W)
Time: 17:17:17
(UTC+00:00)

Envisat - Pass Details

Date: 30 October 2020
Orbit: 764 x 766 km, 98.1° (Epoch: 25 November)

Event Time Altitude Azimuth Distance (km) Brightness Sun altitude
Rises 15:03:18 0° 18° (NNE) 3,250 6.5 -15.9°
Reaches altitude 10° 15:05:54 10° 29° (NNE) 2,319 5.9 -15.7°
Maximum altitude 15:10:22 30° 90° (E) 1,365 5.1 -15.2°
Drops below altitude 10° 15:14:49 10° 151° (SSE) 2,305 5.9 -14.7°
Sets 15:17:23 0° 163° (SSE) 3,227 6.5 -14.5°
